sat.trackr.live / text

‹ back to catalog

STARLINK-32743

NORAD 62480 · 2024-254U

PAYLOAD ACTIVE UNKNOWN

§ Identity

Operator
Country
US
Launch date
2024-12-31
Launch site
AFETR
Launch vehicle
Mass (kg)
RCS (m²)

Purposes: comms

External: N2YO · Heavens-Above · Gunter

§ Orbital elements

Epoch: 2026-09-21T13:19:38.266464Z

Period
94.27 min
Inclination
43.0043°
Eccentricity
0.0001060
Mean motion
15.27585082 rev/d
Perigee alt
482.3 km
Apogee alt
483.8 km
Semi-major
6,861.2 km
B*
3.2993e-4
RAAN
349.7438°
Arg perigee
265.8018°
Mean anomaly
94.2712°
Rev number
9,761

§ Raw data

STARLINK-327431 62480U 24254U   26264.55530401  .00008829  00000+0  32993-3 0  99952 62480  43.0043 349.7438 0001060 265.8018  94.2712 15.27585082 97612

JSON: /api/v1/satellites/62480 · /tle

For live sub-satellite position, see the globe view (requires WebGL).

§ Visibility from observer

Set your observer location to see the next 7 days of passes ≥ 10°. The values pass through the URL so the page stays shareable.

No JS? Fill the form by hand. The geolocation button needs JavaScript.